Theta_e
307 307 307 307 307 307 307 307 306 307 306 308 310 312 314 312 312 311 310 315 308 301 300 303 304 300 301 301 296 301 300 303 303 296 296 297 295 300 302 304 303 301 298 297 300 297 295 314 315 310 317 317 316 324
307 307 307 307 307 308 307 307 307 307 307 308 310 311 314 313 312 313 307 314 313 302 301 306 306 307 307 306 302 302 302 302 304 301 302 302 299 302 298 294 309 298 303 301 309 305 310 316 317 322 319 323 325 323
306 306 306 307 307 307 307 307 307 307 307 308 310 312 313 314 313 312 308 311 307 301 301 302 304 310 312 310 312 301 304 307 308 310 305 303 299 301 294 297 302 305 306 307 309 308 310 313 317 319 327 326 324 323
306 306 306 307 307 307 307 306 307 307 307 307 310 311 313 314 314 314 308 310 308 303 296 300 311 311 316 315 314 313 309 311 312 310 306 303 298 304 301 304 300 303 306 305 314 311 313 314 318 327 326 325 324 323
306 306 306 306 306 306 307 307 307 307 307 308 310 312 314 314 313 313 311 311 312 301 294 296 303 308 313 313 313 314 313 312 309 306 304 301 304 303 306 306 302 307 305 302 308 320 318 320 326 327 323 322 322 321
306 306 306 306 306 306 307 307 307 307 307 307 310 312 313 313 312 310 303 312 310 309 299 296 307 307 314 317 315 314 314 313 310 307 305 307 309 304 300 299 307 311 313 313 311 313 325 324 326 326 322 322 322 321
306 306 306 306 306 306 306 306 306 307 307 307 309 311 312 312 312 304 302 308 310 310 302 298 300 312 314 314 314 314 315 312 311 309 306 308 309 308 305 299 307 312 315 314 318 317 320 322 321 323 322 321 321 320
306 306 306 306 306 306 306 306 306 306 307 307 309 311 311 312 309 305 309 310 311 305 304 297 299 307 314 309 306 313 310 311 310 308 309 307 309 308 302 310 314 316 315 316 318 321 324 323 321 320 320 320 318 318
305 305 305 306 306 306 306 306 306 307 306 307 309 311 311 307 304 305 314 313 311 306 298 300 297 298 313 310 310 309 311 304 311 305 307 305 305 302 309 309 312 316 314 315 319 323 321 318 318 318 317 318 317 317
305 305 305 306 306 306 306 306 306 307 306 308 309 303 298 306 315 314 309 304 303 303 302 298 302 297 308 304 304 306 308 304 301 306 309 303 302 309 312 315 315 316 320 318 320 316 316 316 316 317 316 318 318 318
305 304 305 305 306 305 305 306 306 305 308 307 302 301 311 313 308 304 299 298 301 299 303 303 302 299 310 302 301 306 304 305 300 303 303 301 301 307 313 313 316 318 317 317 322 320 319 318 316 317 318 318 318 318
305 304 305 305 305 305 305 306 306 303 306 303 302 305 310 304 301 296 295 299 298 296 304 304 304 306 308 310 304 306 302 304 297 309 302 300 307 311 312 314 317 319 317 322 321 320 319 319 318 318 318 317 318 319
304 305 305 305 305 305 305 305 306 305 306 306 303 300 300 299 289 290 289 294 297 303 306 304 303 306 311 312 306 305 300 300 308 302 301 303 310 311 313 315 316 321 318 321 320 320 320 319 320 319 318 319 319 318
304 305 305 305 305 305 305 305 305 305 304 298 294 288 293 292 294 295 296 299 304 306 305 305 303 304 309 305 305 300 303 304 299 298 301 309 311 312 315 319 320 318 318 319 319 319 319 318 319 320 319 319 318 317
304 305 304 304 305 305 305 305 305 306 302 295 293 288 292 298 300 303 304 304 306 307 306 304 303 305 304 302 303 302 300 297 299 299 307 311 309 311 313 318 320 321 319 319 319 319 318 318 317 317 318 318 318 317
303 302 301 303 305 305 305 305 305 305 301 296 294 291 296 296 298 301 302 302 307 305 307 305 300 300 300 301 298 298 297 296 302 306 310 314 315 315 322 322 322 322 322 320 320 319 317 316 315 316 317 318 317 316
302 298 304 303 303 304 305 302 302 298 296 294 293 297 296 297 297 301 304 304 309 304 298 300 297 298 304 299 298 302 302 305 309 309 312 315 316 319 324 324 322 323 323 320 319 317 317 318 318 316 315 315 316 316
298 302 304 304 303 303 301 299 297 296 292 295 293 295 298 300 300 302 305 306 303 302 302 299 304 299 298 297 299 305 308 311 312 314 315 314 316 322 324 323 324 325 321 320 318 318 318 317 316 316 317 317 316 316
300 302 302 302 303 301 297 296 299 291 294 296 298 299 299 299 303 304 305 306 306 306 302 303 300 299 297 304 306 308 309 310 310 311 311 315 318 321 322 320 321 321 320 319 318 318 318 318 318 319 319 317 315 314
301 301 301 301 302 297 294 295 303 295 292 297 299 297 298 298 299 300 304 305 304 302 299 299 301 303 305 308 310 311 310 313 312 306 306 310 316 322 319 317 319 322 320 320 320 314 320 319 320 319 318 315 314 312
299 300 301 302 299 297 294 296 296 297 297 295 297 297 297 300 298 299 299 304 302 300 300 303 304 308 310 313 313 315 313 313 313 311 309 310 316 321 323 318 321 320 319 317 318 316 314 318 319 319 316 315 315 314
300 303 300 301 296 296 295 299 297 300 296 296 295 297 294 294 295 298 302 298 298 302 304 305 307 310 312 312 312 316 316 315 313 312 305 309 316 318 319 322 322 319 317 317 319 318 318 319 319 318 317 316 313 314
302 301 298 297 292 291 290 299 293 295 290 292 296 292 293 294 296 300 296 298 298 303 308 309 309 312 313 315 316 314 313 313 312 315 317 319 319 319 322 322 322 318 317 317 320 319 319 310 313 317 316 314 313 310
302 296 292 291 291 287 294 292 294 292 292 291 290 289 293 295 298 296 293 295 300 303 302 305 307 307 308 312 312 312 312 312 314 316 321 319 316 316 320 320 320 318 316 316 316 317 317 317 310 316 314 312 312 309
288 289 291 285 293 290 288 288 289 290 287 289 289 290 293 298 293 292 292 296 300 300 302 305 304 306 305 306 311 312 316 315 315 315 321 320 318 317 319 318 317 317 318 314 313 313 313 315 315 313 313 312 310 309
283 289 286 289 290 289 289 287 288 289 290 289 290 294 295 293 290 289 295 299 301 303 303 304 302 303 304 308 309 312 313 318 317 317 321 320 319 316 315 315 314 315 318 316 315 314 313 313 313 312 312 308 297 310
284 287 293 296 295 294 291 293 295 293 290 289 292 292 291 288 288 293 298 301 301 304 309 309 308 308 308 309 318 318 315 314 314 318 318 318 320 321 318 316 315 318 321 320 318 315 313 312 312 312 310 310 310 312
288 291 287 292 293 295 290 291 290 289 291 294 294 290 290 290 291 298 302 311 313 311 310 312 315 315 315 318 318 316 314 314 316 322 320 320 319 322 323 322 323 302 320 320 320 319 317 314 312 312 310 309 309 310
287 292 293 290 291 291 291 290 291 293 295 295 293 292 294 299 304 309 311 312 313 311 311 314 315 319 318 321 320 321 321 321 318 314 313 313 315 318 322 318 318 317 314 312 294 306 312 311 310 311 312 311 311 311
289 293 289 289 288 287 291 294 293 297 298 298 298 298 299 302 306 314 312 309 308 310 316 315 317 316 315 315 315 316 320 321 320 317 313 314 315 319 319 318 318 316 315 313 312 310 293 304 303 309 308 311 310 309
295 291 287 289 289 292 294 298 298 298 297 297 299 298 299 303 309 314 314 311 311 312 314 313 314 317 316 316 315 314 315 316 316 317 313 315 320 320 319 319 319 318 317 315 314 313 309 308 311 310 310 310 310 308
293 287 286 288 291 297 300 298 296 296 297 295 296 300 303 299 297 307 313 315 312 310 301 308 313 312 317 318 318 315 302 314 313 316 318 317 317 321 321 320 319 318 317 316 315 315 314 312 312 312 310 310 309 309
297 295 295 294 294 295 299 298 295 296 297 297 299 300 298 297 298 308 318 317 315 313 312 314 315 316 320 318 316 313 305 312 303 291 293 293 295 305 318 318 320 319 319 316 316 315 315 314 313 311 310 309 310 310
Wind_Speed
8 8 8 9 8 8 9 9 11 11 13 15 16 16 13 7 6 4 3 2 2 3 9 11 14 14 8 6 6 5 10 3 7 4 3 2 4 6 9 8 4 5 4 2 2 3 4 6 8 3 2 11 21 17
9 8 8 8 8 8 9 10 10 11 12 14 15 15 13 7 7 6 3 2 3 3 7 13 17 19 20 22 13 7 7 8 6 5 6 3 6 2 7 7 14 2 5 3 3 5 11 6 11 9 10 23 18 21
10 9 8 7 8 8 8 10 11 11 12 13 14 13 12 8 10 9 4 1 1 3 8 9 10 13 16 19 16 6 6 8 5 3 6 4 4 3 0 4 10 16 16 1 6 6 7 15 10 4 11 22 21 21
10 9 8 7 7 8 8 9 10 11 12 13 14 14 12 9 9 12 4 3 2 3 5 6 9 12 8 12 16 19 16 14 6 1 5 3 2 2 2 3 5 6 12 10 4 8 6 12 8 16 19 22 22 19
10 10 9 8 8 8 8 9 10 11 11 13 14 16 10 8 5 4 7 5 5 3 4 9 19 22 12 11 15 13 14 12 6 4 4 6 3 2 2 2 5 4 2 4 4 6 4 7 17 22 23 22 21 23
10 10 9 9 9 8 8 9 10 11 11 13 14 15 7 8 6 3 4 3 8 5 4 5 8 11 4 5 9 12 8 7 5 4 4 2 3 5 5 7 8 5 5 8 11 15 4 16 16 17 19 18 19 21
11 10 9 9 9 9 9 10 11 11 12 13 14 12 7 7 4 4 3 1 3 1 4 5 6 2 3 3 2 2 6 4 4 3 4 4 4 4 4 5 10 10 5 8 11 18 8 15 16 18 18 16 21 20
11 10 9 9 9 9 10 10 10 11 11 13 13 9 7 6 5 7 11 12 5 2 3 5 7 2 1 3 2 2 3 2 3 4 2 3 2 3 6 6 12 12 10 12 12 16 21 19 18 15 18 19 21 19
11 11 10 9 9 9 10 10 10 10 10 12 13 2 1 2 4 5 12 9 6 4 4 4 4 4 1 2 1 4 4 4 5 4 3 3 4 7 9 1 3 9 11 8 14 14 20 21 20 19 18 17 20 18
12 11 10 10 9 9 10 9 10 9 11 12 3 2 3 5 5 4 2 3 3 5 5 8 6 11 2 3 4 3 4 4 4 6 4 5 5 10 4 5 8 6 16 22 20 17 20 20 19 19 18 15 15 16
12 11 11 10 9 9 8 8 8 8 7 2 3 4 1 5 1 2 3 4 5 5 7 7 13 11 6 5 5 3 4 4 4 2 3 4 5 3 2 2 3 11 11 25 9 13 18 22 20 19 18 18 16 16
12 11 11 10 9 8 7 7 6 3 1 3 4 5 3 0 3 4 4 4 6 6 5 7 8 8 4 5 5 6 4 2 6 3 3 4 4 5 1 6 5 5 13 13 14 16 17 17 15 16 16 16 15 16
10 10 11 9 9 8 7 6 5 7 8 2 3 3 4 4 4 6 6 6 5 4 3 7 10 2 3 3 2 3 4 5 3 5 4 2 7 6 6 3 1 13 11 9 15 16 16 14 13 13 15 14 14 12
9 9 11 9 9 8 7 6 5 5 4 3 3 5 5 6 7 7 9 5 3 3 6 7 8 5 4 3 2 3 4 3 4 5 1 4 4 6 2 4 7 15 22 14 16 16 15 13 11 14 14 12 12 11
8 8 7 9 9 10 8 6 5 3 3 4 3 6 8 8 6 3 5 3 3 5 4 5 7 4 3 1 2 3 3 4 4 4 3 3 12 18 15 15 10 6 9 9 12 12 11 12 15 13 13 11 12 9
7 5 7 11 12 12 8 5 3 3 3 3 6 4 8 8 8 5 6 4 3 3 1 2 6 3 3 3 5 7 3 2 2 3 3 2 9 20 2 10 11 8 9 11 12 10 13 15 14 13 12 12 11 10
10 4 3 16 14 8 8 3 3 6 6 7 6 8 8 8 8 6 3 3 0 2 2 2 7 5 3 3 4 4 3 2 2 3 4 4 6 9 8 1 6 5 7 12 13 15 15 15 15 14 12 8 9 8
6 5 6 3 11 6 4 5 4 5 9 6 5 6 8 7 6 6 3 2 3 3 2 5 4 3 3 4 2 4 4 1 2 2 7 9 11 9 4 5 7 5 9 12 14 16 17 16 14 10 12 9 9 8
4 5 10 8 6 3 4 7 4 4 6 6 8 8 7 7 6 8 5 6 4 4 3 5 4 3 1 3 3 3 4 5 3 3 3 10 10 10 6 7 8 11 12 11 12 11 11 13 11 10 9 8 7 6
6 3 4 8 3 3 4 5 4 5 5 4 8 9 9 8 7 7 6 6 6 4 3 5 2 4 4 7 3 4 3 3 2 9 10 10 11 6 7 6 8 9 4 13 11 13 10 9 8 9 8 7 7 5
4 4 4 4 4 3 4 5 4 4 4 5 6 6 5 4 6 7 8 8 7 6 5 8 7 2 5 4 3 3 4 3 2 4 4 8 9 5 2 7 9 3 5 6 10 9 11 10 10 9 8 6 7 6
4 13 3 5 3 6 6 6 5 2 3 5 7 5 5 6 7 6 3 6 8 6 8 8 7 5 3 4 4 2 2 4 8 6 7 7 2 4 4 1 2 7 6 6 8 9 8 9 10 10 10 6 8 7
6 7 3 8 6 5 7 4 4 4 4 4 4 9 6 7 7 6 7 7 8 7 5 6 8 9 6 5 4 1 3 4 6 8 6 2 2 2 3 1 1 4 5 8 0 8 7 10 8 10 8 7 8 7
5 4 6 6 9 5 5 4 2 3 5 7 6 8 9 6 7 8 9 9 8 8 8 8 5 5 5 6 5 5 5 5 9 6 3 4 2 2 3 5 6 6 6 7 10 8 1 7 10 8 7 7 8 8
3 5 4 5 5 5 6 9 9 6 8 10 15 12 7 3 7 10 11 7 8 8 7 7 7 6 7 7 5 4 6 5 4 4 5 5 4 3 3 4 5 3 6 11 11 7 9 3 4 7 5 6 10 9
4 6 6 7 5 6 6 8 11 16 10 12 7 6 7 9 14 11 7 8 8 7 8 8 9 8 8 8 8 2 3 1 5 3 2 6 6 6 6 6 7 4 3 10 14 13 6 5 6 6 5 6 8 11
6 7 6 6 6 5 4 7 7 5 6 5 6 11 8 6 10 10 8 8 6 7 6 6 6 7 8 8 4 5 3 5 3 5 1 5 5 3 6 8 8 6 8 11 11 12 13 11 11 10 4 4 5 5
7 5 9 10 8 6 11 9 5 6 6 5 5 9 5 5 10 9 6 3 4 8 8 5 2 2 4 6 6 6 4 3 7 6 6 5 11 5 4 3 6 12 5 2 8 9 11 11 9 6 6 6 5 2
6 4 6 11 8 5 6 8 9 7 6 8 10 11 13 11 5 2 3 4 5 7 10 4 3 4 6 5 4 3 2 2 4 7 9 9 10 6 5 7 7 7 7 8 9 9 9 7 7 4 4 5 5 5
6 7 6 7 7 10 8 8 7 7 8 10 11 12 11 9 7 5 3 4 5 10 1 7 3 5 6 6 3 2 3 1 1 1 4 1 1 8 8 9 9 9 7 7 7 5 7 4 2 1 3 4 4 4
3 4 4 6 6 8 10 7 5 8 8 9 9 9 9 7 5 4 1 2 3 6 3 8 2 2 5 6 4 3 3 4 5 4 4 2 2 6 8 8 9 9 9 9 9 8 6 6 6 6 7 2 4 6
6 7 5 5 4 5 4 5 6 6 7 9 6 7 6 2 5 4 1 2 9 6 1 1 2 5 4 4 4 6 10 4 4 4 5 5 5 7 7 5 5 8 9 10 9 6 7 7 5 7 9 10 8 8
5 7 8 4 3 3 4 4 1 2 2 0 3 6 3 4 5 2 1 4 4 5 8 6 2 3 2 9 9 7 7 6 7 6 4 6 4 5 4 6 10 9 10 8 6 6 7 11 8 7 6 6 5 5
Wind_Direction
244 257 273 284 290 296 302 308 313 315 317 322 321 315 312 243 219 218 278 193 211 251 279 268 274 273 273 271 263 310 323 359 285 236 234 107 284 290 320 327 285 172 132 145 81 55 282 264 11 83 318 126 153 153
240 252 265 278 289 296 300 305 308 312 314 317 318 310 312 243 228 212 264 168 108 201 268 299 274 259 254 251 265 259 267 333 285 334 351 18 248 322 348 296 332 303 154 158 91 213 162 201 127 333 294 143 143 124
247 256 263 272 285 289 295 301 305 310 313 315 320 315 307 252 230 210 261 159 152 254 271 249 268 266 226 227 228 238 234 203 245 76 299 278 282 173 148 305 328 344 9 64 80 307 172 171 164 182 183 118 124 126
242 251 255 265 276 283 290 298 301 307 309 313 314 308 294 277 259 204 229 212 223 284 270 275 266 278 265 226 215 214 236 271 289 341 272 252 284 355 253 280 271 260 318 318 69 177 177 271 240 142 115 115 118 122
241 251 260 262 270 278 287 294 297 302 304 311 314 309 272 259 250 227 248 243 193 168 291 300 300 273 263 229 237 227 221 232 237 250 231 272 100 200 250 332 258 183 65 329 218 209 142 152 134 128 123 128 130 130
237 246 253 261 267 271 282 289 294 297 303 311 312 313 263 244 226 271 279 207 193 169 257 279 312 286 260 331 223 219 222 237 215 219 253 215 194 162 212 217 209 198 245 206 251 307 166 132 128 128 126 133 134 128
238 242 252 258 267 273 280 287 293 298 304 308 308 306 267 242 213 217 259 253 26 172 265 283 273 113 21 287 273 231 193 203 188 230 237 228 206 165 250 238 241 242 251 280 236 276 127 136 136 130 126 122 118 123
232 237 244 253 262 270 278 284 289 294 302 307 309 285 263 244 270 266 252 260 159 257 252 264 265 221 304 265 320 241 170 194 230 232 240 218 181 216 247 276 296 301 345 293 277 278 144 129 123 120 127 128 128 131
228 234 243 248 256 268 276 283 285 290 298 305 310 252 264 202 231 237 244 191 164 196 273 256 280 305 9 273 100 275 196 228 201 219 218 128 217 224 216 152 278 229 274 279 293 228 131 130 128 133 135 133 132 136
226 233 242 244 249 257 270 280 288 297 299 301 244 166 231 207 234 258 260 155 178 209 224 249 265 266 205 57 304 270 193 235 222 211 115 218 249 260 245 202 241 187 188 301 214 156 138 131 140 143 144 136 134 133
224 227 238 241 241 247 267 282 295 319 294 205 204 229 312 119 251 248 240 216 207 228 205 230 214 232 188 149 212 252 295 291 258 152 222 224 255 188 214 146 96 325 317 301 195 136 135 140 149 145 146 146 144 140
218 225 231 231 232 241 263 275 297 277 343 305 284 282 253 272 213 228 217 228 216 244 241 216 223 197 209 124 176 199 227 249 257 141 255 238 224 156 266 88 95 173 268 168 135 135 141 147 148 146 141 138 136 137
218 226 227 223 223 239 260 270 275 282 293 286 221 262 207 174 223 212 210 214 226 254 334 355 337 263 141 147 178 191 233 240 195 216 237 256 112 138 100 89 206 237 250 177 134 140 144 143 140 135 131 133 135 136
224 234 214 213 224 235 253 262 261 282 242 236 219 237 231 193 222 197 243 292 302 297 347 4 301 277 24 68 342 246 236 262 271 269 347 8 51 80 225 128 182 243 249 143 142 142 145 144 125 121 125 128 127 134
220 211 210 221 226 236 245 249 251 237 246 228 232 240 226 250 281 270 262 284 326 4 36 325 288 247 114 157 188 297 257 241 254 352 48 338 18 328 288 205 237 118 136 132 142 144 138 126 120 115 118 115 113 116
178 197 223 221 218 221 227 221 230 228 241 223 222 265 259 276 279 309 323 14 42 3 317 24 273 315 167 213 205 210 247 216 24 306 264 263 185 232 248 140 150 165 156 160 149 135 122 117 117 118 111 115 118 123
171 241 77 204 210 209 186 216 212 213 232 217 215 216 252 274 264 277 318 21 129 69 2 252 252 224 286 224 227 241 52 56 214 274 266 272 304 309 317 115 160 150 136 135 129 125 122 122 123 119 118 121 121 126
218 200 140 96 167 174 191 203 259 234 236 235 222 238 230 242 266 272 144 147 78 324 288 253 291 257 237 280 11 19 26 124 218 296 315 317 318 304 329 22 16 142 123 135 132 126 129 132 132 130 126 133 123 123
195 62 23 351 224 255 214 207 192 273 258 260 210 227 246 271 253 226 205 178 162 146 260 284 249 192 212 355 346 357 346 357 332 277 281 320 332 308 42 62 26 354 125 125 125 133 136 139 138 132 128 130 128 124
262 318 294 298 285 243 235 232 208 243 263 256 231 240 235 235 244 250 244 197 192 148 210 256 219 156 220 194 232 187 216 239 357 18 357 339 320 315 104 86 73 340 272 137 128 129 128 121 130 124 136 135 129 131
178 212 208 228 183 215 282 293 242 256 263 253 286 296 282 260 244 238 227 234 227 214 225 238 278 275 201 199 190 239 250 268 174 178 158 286 295 328 59 148 150 160 285 108 129 142 133 141 142 132 143 135 138 139
217 168 156 195 235 215 242 230 231 269 281 262 267 263 257 261 271 253 251 256 256 231 224 252 264 264 220 168 226 289 27 322 292 294 280 251 279 360 325 307 184 181 171 162 151 159 141 148 145 146 150 155 141 138
203 172 208 198 219 224 252 251 236 227 252 276 234 220 240 254 245 266 258 237 254 261 253 231 252 268 266 257 161 22 345 303 295 253 225 177 101 21 0 235 333 93 45 18 64 160 138 156 147 147 141 133 129 126
254 217 208 207 196 235 241 210 243 240 259 246 255 267 266 227 226 236 245 245 251 229 242 257 265 272 278 266 244 188 223 255 262 272 122 129 127 81 64 61 70 86 109 93 47 357 58 148 126 129 133 126 127 134
166 241 191 243 243 227 226 224 218 221 233 256 256 259 261 276 237 233 241 242 230 232 240 230 226 230 242 261 272 264 236 211 233 227 166 141 116 95 86 103 100 126 138 104 87 56 342 335 88 121 132 129 135 148
205 227 188 203 233 206 203 228 215 216 233 241 257 248 248 261 262 254 249 230 241 235 215 231 214 223 225 235 246 142 273 193 43 351 34 143 162 158 158 161 153 160 163 141 136 142 119 13 12 342 165 145 145 161
231 234 226 230 244 235 236 252 274 272 243 236 241 229 253 260 255 241 247 268 271 275 263 218 209 213 210 224 124 165 191 110 122 290 122 56 336 253 178 173 178 170 152 153 152 155 156 164 184 203 165 105 141 163
230 245 235 232 229 240 253 253 253 242 230 229 247 249 227 215 238 264 274 195 342 278 257 239 175 183 223 152 158 149 171 165 206 180 125 116 259 239 188 149 164 140 140 152 160 166 169 176 182 167 136 133 141 169
227 227 243 247 249 239 219 217 225 226 253 273 257 239 244 264 279 289 2 328 310 315 290 141 43 94 71 75 69 77 181 181 191 213 192 175 186 188 160 130 130 109 117 101 88 106 119 120 109 118 195 160 162 173
224 188 213 197 206 221 207 207 233 241 250 256 274 288 289 292 306 326 352 336 346 321 222 116 120 112 121 120 127 128 270 49 159 333 224 205 270 138 145 142 142 138 133 122 123 106 37 28 337 226 212 177 163 171
183 152 195 224 240 232 220 218 240 265 270 279 281 280 283 305 306 288 6 317 317 255 304 77 65 220 149 134 137 183 161 35 14 356 43 46 296 184 145 152 148 147 155 155 161 175 190 213 206 180 145 91 108 130
175 184 200 234 247 233 229 202 196 214 202 208 225 222 228 48 334 269 21 241 226 193 39 4 226 189 179 137 118 93 118 117 55 341 9 21 295 233 160 148 154 151 153 162 174 177 165 153 137 119 123 134 134 120
196 193 206 228 215 213 161 151 129 181 240 137 202 193 213 138 241 285 330 47 87 117 144 162 200 209 181 109 114 101 78 95 97 87 13 282 229 147 217 175 158 165 150 161 151 165 178 134 130 134 140 152 183 185